STARLINK-30140, 57458

Orbit data source: Space-Track

STARLINK-30140, 57458 is a payload satellite owned by SpaceX/Seattle (US) in LEO that was launched on Fri, 28 Jul 2023 UTC via an FALCON 9 launch vehicle from the Air Force Eastern Test Range (AFETR). Payload-class satellites include a variety of spacecraft equipped with specific instruments for various scientific and technological missions. These include communications satellites like Starlink; space stations such as the ISS; scientific satellites like the Hubble; Earth observation satellites from companies like Planet Labs, Umbra, and HawkEye 360; GPS; miniature CubeSats for education and research; and military/defense satellites.

Loading next visibility...
Identifier
57458, 2023-107B
Orbit
LEO
Country
Flag of USUS
Related business
Manufacturer
SpaceX/Seattle
Mission
Operational Commercial Communications
Bus & Motor
STARLINK V2M, Unknown motor
Mass
730 kg wet, ~700 kg dry
Launch date (UTC)
2023-07-28 (3 years ago)
Launch vehicle
FALCON 9
Launch site
Air Force Eastern Test Range (AFETR)
Object type
Payload
Rocket body
Debris
Shape & HBR
Box + 2 Pan, 17.7 m
Radar Cross Section
33.884 m², Large (>1 m²)

Expand to show TLE details & history
Last TLE update: 2 days ago

TLE from 2 days ago
0 STARLINK-30140
1 57458U 23107B   26171.24953773 -.00001857  00000-0 -57978-4 0  9992
2 57458  43.0028 120.1964 0001422 270.3840  89.6849 15.27567738160792
Epoch: 2026-06-20T05:59Z
TLE epoch observation values (Epoch: 2026-06-20T05:59:20.059Z)
Latitude
-0.00002°
Longitude
121.89593°
Altitude
482.856 km
Speed
7.626 km/s
True Right ascension
08h 00m 47s
True Declination
0° 00' 00"
Sunlit
Object was in daylight at epoch
Visualization orbit readout
Latitude
Unknown
Longitude
Unknown
Altitude
Unknown
Speed
Unknown
Apparent Right ascension
Unknown
Apparent Declination
Unknown
Sunlit
N/A
Visualization observer readout
Local Sidereal Time
21:26:23
Azimuth
Unknown
Elevation
Unknown
Doppler factor
Unknown
Orbital elements
Apogee altitude
486.006 km
Perigee altitude
484.055 km
Semi-major axis
6,863.168 km
Eccentricity
0.00014
Inclination
43.0028°
RAAN
120.1964°
Arg. of periapsis
270.384°
True anomaly
89.70119°
Mean anomaly
89.6849°
Eccentric anomaly
89.69305°
Mean motion
3.8173 °/min
Orbital period
94.31 mins
BSTAR
-0.000057978
Loading maneuver chart data...
Computing Atmospheric mass density...

Documentation

Showing up to 5 results
|